| time (UTC) | temp F | wind direction | speed MPH | gust MPH | rain 1hr in | rain 24hr in | rain mn in | humidity % | barometer mb |
| 20260506232015 | 50 | 298 | 8.0 | 15.0 | 0.00 | 0.00 | 0.00 | 41 | 1013.5 |
| 20260506231538 | 50 | 314 | 8.0 | 19.0 | 0.00 | 0.00 | 0.00 | 41 | 1013.3 |
| 20260506231015 | 50 | 307 | 11.0 | 19.0 | 0.00 | 0.00 | 0.00 | 41 | 1013.3 |
| 20260506230516 | 50 | 313 | 12.0 | 18.0 | 0.00 | 0.00 | 0.00 | 39 | 1013.3 |
| 20260506230039 | 50 | 296 | 10.0 | 17.0 | 0.00 | 0.00 | 0.00 | 40 | 1013.3 |
| 20260506225520 | 50 | 314 | 8.0 | 17.0 | 0.00 | 0.00 | 0.00 | 40 | 1013.2 |
| 20260506225016 | 50 | 308 | 10.0 | 17.0 | 0.00 | 0.00 | 0.00 | 40 | 1013.2 |
| 20260506224532 | 50 | 337 | 9.0 | 16.0 | 0.00 | 0.00 | 0.00 | 40 | 1013.2 |
| 20260506224016 | 50 | 301 | 7.0 | 15.0 | 0.00 | 0.00 | 0.00 | 40 | 1013.2 |
| 20260506223515 | 50 | 315 | 7.0 | 15.0 | 0.00 | 0.00 | 0.00 | 40 | 1013.2 |
| 20260506223044 | 50 | 297 | 9.0 | 15.0 | 0.00 | 0.00 | 0.00 | 40 | 1013.1 |
| 20260506222516 | 50 | 313 | 7.0 | 12.0 | 0.00 | 0.00 | 0.00 | 40 | 1013.1 |
| 20260506222016 | 50 | 311 | 7.0 | 14.0 | 0.00 | 0.00 | 0.00 | 39 | 1013.0 |
| 20260506221532 | 50 | 336 | 8.0 | 16.0 | 0.00 | 0.00 | 0.00 | 40 | 1013.0 |
| 20260506221019 | 50 | 248 | 7.0 | 16.0 | 0.00 | 0.00 | 0.00 | 40 | 1013.0 |
| 20260506220518 | 50 | 312 | 9.0 | 17.0 | 0.00 | 0.00 | 0.00 | 40 | 1012.9 |
| 20260506220032 | 50 | 287 | 10.0 | 17.0 | 0.00 | 0.00 | 0.00 | 40 | 1012.9 |
| 20260506215518 | 50 | 316 | 9.0 | 14.0 | 0.00 | 0.00 | 0.00 | 40 | 1012.8 |
| 20260506215015 | 50 | 288 | 8.0 | 17.0 | 0.00 | 0.00 | 0.00 | 40 | 1012.9 |
| 20260506214529 | 51 | 309 | 10.0 | 17.0 | 0.00 | 0.00 | 0.00 | 39 | 1012.9 |
| 20260506214015 | 51 | 304 | 6.0 | 18.0 | 0.00 | 0.00 | 0.00 | 39 | 1012.7 |
| 20260506213520 | 51 | 308 | 6.0 | 18.0 | 0.00 | 0.00 | 0.00 | 40 | 1012.8 |
| 20260506213036 | 51 | 294 | 10.0 | 18.0 | 0.00 | 0.00 | 0.00 | 40 | 1012.8 |
| 20260506212516 | 51 | 295 | 7.0 | 14.0 | 0.00 | 0.00 | 0.00 | 40 | 1012.6 |
| 20260506212016 | 51 | 291 | 8.0 | 20.0 | 0.00 | 0.00 | 0.00 | 38 | 1012.6 |
| 20260506211544 | 51 | 327 | 6.0 | 20.0 | 0.00 | 0.00 | 0.00 | 39 | 1012.7 |
| 20260506211016 | 51 | 309 | 7.0 | 20.0 | 0.00 | 0.00 | 0.00 | 40 | 1012.8 |
| 20260506210516 | 52 | 306 | 9.0 | 16.0 | 0.00 | 0.00 | 0.00 | 39 | 1012.8 |
| 20260506210035 | 52 | 298 | 9.0 | 16.0 | 0.00 | 0.00 | 0.00 | 39 | 1012.8 |
| 20260506205515 | 52 | 288 | 7.0 | 16.0 | 0.00 | 0.00 | 0.00 | 38 | 1012.8 |
| 20260506205015 | 51 | 312 | 10.0 | 16.0 | 0.00 | 0.00 | 0.00 | 38 | 1012.8 |
| 20260506204531 | 52 | 298 | 6.0 | 17.0 | 0.00 | 0.00 | 0.00 | 38 | 1012.8 |
| 20260506204015 | 52 | 286 | 8.0 | 17.0 | 0.00 | 0.00 | 0.00 | 40 | 1012.8 |
| 20260506203515 | 52 | 304 | 9.0 | 17.0 | 0.00 | 0.00 | 0.00 | 37 | 1012.9 |
| 20260506203031 | 52 | 259 | 6.0 | 15.0 | 0.00 | 0.00 | 0.00 | 39 | 1012.9 |
| 20260506202515 | 52 | 251 | 6.0 | 15.0 | 0.00 | 0.00 | 0.00 | 38 | 1013.0 |
| 20260506202016 | 52 | 337 | 6.0 | 16.0 | 0.00 | 0.00 | 0.00 | 40 | 1013.0 |
| 20260506201538 | 52 | 308 | 10.0 | 18.0 | 0.00 | 0.00 | 0.00 | 38 | 1013.0 |
| 20260506201015 | 52 | 300 | 11.0 | 18.0 | 0.00 | 0.00 | 0.00 | 37 | 1013.0 |
| 20260506200515 | 53 | 279 | 7.0 | 17.0 | 0.00 | 0.00 | 0.00 | 37 | 1013.0 |
| 20260506200030 | 52 | 294 | 6.0 | 16.0 | 0.00 | 0.00 | 0.00 | 39 | 1013.1 |
| 20260506195517 | 52 | 304 | 8.0 | 16.0 | 0.00 | 0.00 | 0.00 | 39 | 1013.2 |
| 20260506195016 | 52 | 300 | 6.0 | 12.0 | 0.00 | 0.00 | 0.00 | 39 | 1013.2 |
| 20260506194531 | 51 | 243 | 6.0 | 14.0 | 0.00 | 0.00 | 0.00 | 40 | 1013.1 |
| 20260506194016 | 52 | 315 | 6.0 | 15.0 | 0.00 | 0.00 | 0.00 | 40 | 1013.0 |
| 20260506193516 | 51 | 238 | 7.0 | 15.0 | 0.00 | 0.00 | 0.00 | 39 | 1012.9 |
| 20260506193029 | 52 | 280 | 8.0 | 14.0 | 0.00 | 0.00 | 0.00 | 39 | 1012.9 |
| 20260506192516 | 53 | 293 | 7.0 | 15.0 | 0.00 | 0.00 | 0.00 | 40 | 1012.9 |
| 20260506192015 | 52 | 267 | 9.0 | 15.0 | 0.00 | 0.00 | 0.00 | 41 | 1012.9 |
| 20260506191537 | 51 | 327 | 7.0 | 15.0 | 0.00 | 0.00 | 0.00 | 39 | 1013.0 |
| 20260506191016 | 52 | 278 | 9.0 | 21.0 | 0.00 | 0.00 | 0.00 | 38 | 1013.2 |
| 20260506190520 | 53 | 249 | 13.0 | 21.0 | 0.00 | 0.00 | 0.00 | 37 | 1013.0 |
| 20260506190031 | 53 | 247 | 9.0 | 17.0 | 0.00 | 0.00 | 0.00 | 39 | 1013.0 |
| 20260506185516 | 53 | 259 | 7.0 | 14.0 | 0.00 | 0.00 | 0.00 | 41 | 1013.1 |
| 20260506185018 | 51 | 298 | 6.0 | 16.0 | 0.00 | 0.00 | 0.00 | 41 | 1013.1 |
| 20260506184531 | 51 | 300 | 10.0 | 19.0 | 0.00 | 0.00 | 0.00 | 41 | 1013.2 |
| 20260506184017 | 51 | 322 | 11.0 | 19.0 | 0.00 | 0.00 | 0.00 | 39 | 1012.9 |
| 20260506183514 | 52 | 308 | 10.0 | 18.0 | 0.00 | 0.00 | 0.00 | 39 | 1013.0 |
| 20260506183039 | 51 | 306 | 7.0 | 15.0 | 0.00 | 0.00 | 0.00 | 42 | 1013.0 |
| 20260506182512 | 51 | 317 | 9.0 | 15.0 | 0.00 | 0.00 | 0.00 | 41 | 1013.0 |
| 20260506182015 | 52 | 267 | 9.0 | 15.0 | 0.00 | 0.00 | 0.00 | 37 | 1012.9 |
| 20260506181530 | 52 | 239 | 4.0 | 19.0 | 0.00 | 0.00 | 0.00 | 42 | 1012.9 |
| 20260506181017 | 51 | 311 | 10.0 | 23.0 | 0.00 | 0.00 | 0.00 | 40 | 1013.0 |
| 20260506180516 | 52 | 304 | 11.0 | 23.0 | 0.00 | 0.00 | 0.00 | 39 | 1012.9 |
| 20260506180030 | 52 | 292 | 8.0 | 17.0 | 0.00 | 0.00 | 0.00 | 43 | 1012.9 |
| 20260506175519 | 51 | 311 | 9.0 | 18.0 | 0.00 | 0.00 | 0.00 | 38 | 1013.1 |
| 20260506175015 | 52 | 311 | 11.0 | 18.0 | 0.00 | 0.00 | 0.00 | 40 | 1013.2 |
| 20260506174530 | 52 | 317 | 8.0 | 17.0 | 0.00 | 0.00 | 0.00 | 41 | 1013.2 |
| 20260506174014 | 53 | 273 | 5.0 | 16.0 | 0.00 | 0.00 | 0.00 | 42 | 1013.2 |
| 20260506173516 | 51 | 234 | 5.0 | 20.0 | 0.00 | 0.00 | 0.00 | 43 | 1013.2 |
| 20260506173031 | 50 | 304 | 8.0 | 20.0 | 0.00 | 0.00 | 0.00 | 41 | 1013.3 |
| 20260506172516 | 51 | 306 | 11.0 | 20.0 | 0.00 | 0.00 | 0.00 | 40 | 1013.3 |
| 20260506172018 | 51 | 302 | 7.0 | 14.0 | 0.00 | 0.00 | 0.00 | 45 | 1013.3 |
| 20260506171533 | 50 | 288 | 9.0 | 17.0 | 0.00 | 0.00 | 0.00 | 41 | 1013.4 |
| 20260506171019 | 50 | 317 | 9.0 | 18.0 | 0.00 | 0.00 | 0.00 | 43 | 1013.5 |
| 20260506170522 | 49 | 252 | 10.0 | 18.0 | 0.00 | 0.00 | 0.00 | 42 | 1013.6 |
| 20260506170046 | 50 | 296 | 11.0 | 18.0 | 0.00 | 0.00 | 0.00 | 42 | 1013.6 |
| 20260506165516 | 50 | 334 | 7.0 | 14.0 | 0.00 | 0.00 | 0.00 | 42 | 1013.6 |
| 20260506165016 | 50 | 290 | 4.0 | 16.0 | 0.00 | 0.00 | 0.00 | 45 | 1013.6 |
| 20260506164536 | 49 | 295 | 6.0 | 17.0 | 0.00 | 0.00 | 0.00 | 44 | 1013.6 |
| 20260506164021 | 49 | 232 | 10.0 | 17.0 | 0.00 | 0.00 | 0.00 | 43 | 1013.6 |
| 20260506163515 | 50 | 246 | 8.0 | 13.0 | 0.00 | 0.00 | 0.00 | 41 | 1013.4 |
| 20260506163035 | 49 | 300 | 5.0 | 16.0 | 0.00 | 0.00 | 0.00 | 46 | 1013.5 |
| 20260506162518 | 49 | 261 | 10.0 | 18.0 | 0.00 | 0.00 | 0.00 | 45 | 1013.6 |
| 20260506162024 | 50 | 296 | 11.0 | 19.0 | 0.00 | 0.00 | 0.00 | 44 | 1013.6 |
| 20260506161539 | 50 | 288 | 9.0 | 19.0 | 0.00 | 0.00 | 0.00 | 40 | 1013.4 |
| 20260506161019 | 51 | 252 | 8.0 | 19.0 | 0.00 | 0.00 | 0.00 | 41 | 1013.5 |
| 20260506160520 | 49 | 262 | 7.0 | 20.0 | 0.00 | 0.00 | 0.00 | 44 | 1013.4 |
| 20260506160035 | 49 | 308 | 10.0 | 20.0 | 0.00 | 0.00 | 0.00 | 44 | 1013.6 |
| 20260506155522 | 50 | 247 | 10.0 | 17.0 | 0.00 | 0.00 | 0.00 | 42 | 1013.6 |
| 20260506155016 | 49 | 275 | 9.0 | 25.0 | 0.00 | 0.00 | 0.00 | 42 | 1013.5 |
| 20260506154541 | 50 | 309 | 12.0 | 25.0 | 0.00 | 0.00 | 0.00 | 42 | 1013.6 |
| 20260506154018 | 48 | 304 | 8.0 | 18.0 | 0.00 | 0.00 | 0.00 | 44 | 1013.5 |
| 20260506153518 | 48 | 255 | 11.0 | 18.0 | 0.00 | 0.00 | 0.00 | 43 | 1013.5 |
| 20260506153034 | 50 | 317 | 11.0 | 18.0 | 0.00 | 0.00 | 0.00 | 42 | 1013.4 |
| 20260506152517 | 49 | 296 | 8.0 | 15.0 | 0.00 | 0.00 | 0.00 | 42 | 1013.4 |
| 20260506152021 | 48 | 327 | 8.0 | 15.0 | 0.00 | 0.00 | 0.00 | 43 | 1013.4 |
| 20260506151539 | 49 | 302 | 9.0 | 15.0 | 0.00 | 0.00 | 0.00 | 44 | 1013.3 |
| 20260506151017 | 49 | 306 | 4.0 | 12.0 | 0.00 | 0.00 | 0.00 | 43 | 1013.3 |
| 20260506150517 | 49 | 289 | 7.0 | 12.0 | 0.00 | 0.00 | 0.00 | 43 | 1013.5 |
| 20260506150035 | 48 | 324 | 4.0 | 12.0 | 0.00 | 0.00 | 0.00 | 43 | 1013.3 |
| 20260506145517 | 48 | 317 | 5.0 | 14.0 | 0.00 | 0.00 | 0.00 | 43 | 1013.4 |
| 20260506145017 | 49 | 282 | 6.0 | 14.0 | 0.00 | 0.00 | 0.00 | 42 | 1013.4 |
| 20260506144540 | 49 | 315 | 9.0 | 14.0 | 0.00 | 0.00 | 0.00 | 44 | 1013.2 |
| 20260506144015 | 49 | 360 | 7.0 | 15.0 | 0.00 | 0.00 | 0.00 | 43 | 1013.4 |
| 20260506143517 | 49 | 264 | 8.0 | 15.0 | 0.00 | 0.00 | 0.00 | 41 | 1013.3 |
| 20260506143034 | 48 | 250 | 5.0 | 12.0 | 0.00 | 0.00 | 0.00 | 43 | 1013.3 |
| 20260506142513 | 48 | 308 | 8.0 | 12.0 | 0.00 | 0.00 | 0.00 | 43 | 1013.3 |
| 20260506142017 | 48 | 276 | 7.0 | 12.0 | 0.00 | 0.00 | 0.00 | 43 | 1013.2 |
| 20260506141532 | 48 | 290 | 6.0 | 9.0 | 0.00 | 0.00 | 0.00 | 47 | 1013.1 |
| 20260506141016 | 47 | 249 | 5.0 | 10.0 | 0.00 | 0.00 | 0.00 | 49 | 1013.2 |
| 20260506140516 | 48 | 254 | 4.0 | 10.0 | 0.00 | 0.00 | 0.00 | 48 | 1013.3 |
| 20260506140030 | 47 | 265 | 6.0 | 10.0 | 0.00 | 0.00 | 0.00 | 50 | 1013.2 |
| 20260506135515 | 47 | 233 | 3.0 | 7.0 | 0.00 | 0.00 | 0.00 | 51 | 1013.2 |
| 20260506135015 | 47 | 311 | 3.0 | 5.0 | 0.00 | 0.00 | 0.00 | 56 | 1013.2 |
| 20260506134529 | 46 | 207 | 2.0 | 4.0 | 0.00 | 0.00 | 0.00 | 57 | 1013.2 |
| 20260506134014 | 45 | 259 | 2.0 | 4.0 | 0.00 | 0.00 | 0.00 | 57 | 1013.2 |
| 20260506133514 | 45 | 270 | 2.0 | 5.0 | 0.00 | 0.00 | 0.00 | 56 | 1013.2 |
| 20260506133032 | 45 | 244 | 2.0 | 5.0 | 0.00 | 0.00 | 0.00 | 55 | 1013.2 |
| 20260506132515 | 45 | 252 | 2.0 | 4.0 | 0.00 | 0.00 | 0.00 | 57 | 1013.3 |
| 20260506132020 | 45 | 270 | 2.0 | 7.0 | 0.00 | 0.00 | 0.00 | 57 | 1013.2 |
| 20260506131533 | 45 | 252 | 2.0 | 7.0 | 0.00 | 0.00 | 0.00 | 57 | 1013.2 |
| 20260506131016 | 45 | 275 | 3.0 | 6.0 | 0.00 | 0.00 | 0.00 | 56 | 1013.2 |
| 20260506130517 | 45 | 294 | 2.0 | 4.0 | 0.00 | 0.00 | 0.00 | 57 | 1013.2 |
| 20260506130032 | 45 | 238 | 1.0 | 4.0 | 0.00 | 0.00 | 0.00 | 56 | 1013.0 |
| 20260506125516 | 45 | 265 | 0.0 | 2.0 | 0.00 | 0.00 | 0.00 | 56 | 1013.0 |
| 20260506125015 | 44 | 165 | 0.0 | 2.0 | 0.00 | 0.00 | 0.00 | 59 | 1012.9 |
| 20260506124531 | 43 | 165 | 0.0 | 2.0 | 0.00 | 0.00 | 0.00 | 60 | 1012.9 |
| 20260506124015 | 43 | 321 | 1.0 | 2.0 | 0.00 | 0.00 | 0.00 | 60 | 1012.8 |
| 20260506123515 | 43 | 134 | 1.0 | 4.0 | 0.00 | 0.00 | 0.00 | 62 | 1012.8 |
| 20260506123033 | 42 | 140 | 0.0 | 4.0 | 0.00 | 0.00 | 0.00 | 62 | 1012.8 |
| 20260506122516 | 42 | 165 | 0.0 | 2.0 | 0.00 | 0.00 | 0.00 | 63 | 1012.8 |
| 20260506122017 | 42 | 212 | 0.0 | 2.0 | 0.00 | 0.00 | 0.00 | 69 | 1012.7 |
| 20260506121530 | 41 | 228 | 0.0 | 2.0 | 0.00 | 0.00 | 0.00 | 70 | 1012.7 |
| 20260506121016 | 40 | 89 | 0.0 | 2.0 | 0.00 | 0.00 | 0.00 | 72 | 1012.7 |
| 20260506120517 | 40 | 0 | 0.0 | 2.0 | 0.00 | 0.00 | 0.00 | 71 | 1012.8 |
| 20260506120040 | 39 | 0 | 0.0 | 2.0 | 0.00 | 0.00 | 0.00 | 75 | 1012.7 |
| 20260506115514 | 39 | 0 | 0.0 | 0.0 | 0.00 | 0.00 | 0.00 | 76 | 1012.6 |
| 20260506115014 | 39 | 0 | 0.0 | 0.0 | 0.00 | 0.00 | 0.00 | 74 | 1012.7 |
| 20260506114533 | 39 | 0 | 0.0 | 1.0 | 0.00 | 0.00 | 0.00 | 75 | 1012.7 |
| 20260506114013 | 38 | 0 | 0.0 | 1.0 | 0.00 | 0.00 | 0.00 | 76 | 1012.5 |
| 20260506113516 | 38 | 0 | 0.0 | 1.0 | 0.00 | 0.00 | 0.00 | 76 | 1012.5 |
| 20260506113033 | 38 | 0 | 0.0 | 1.0 | 0.00 | 0.00 | 0.00 | 75 | 1012.5 |
| 20260506112514 | 37 | 0 | 0.0 | 2.0 | 0.00 | 0.00 | 0.00 | 76 | 1012.6 |
| 20260506112018 | 37 | 0 | 0.0 | 2.0 | 0.00 | 0.00 | 0.00 | 73 | 1012.4 |
| 20260506111531 | 37 | 0 | 0.0 | 2.0 | 0.00 | 0.00 | 0.00 | 77 | 1012.3 |
| 20260506111017 | 37 | 0 | 0.0 | 2.0 | 0.00 | 0.00 | 0.00 | 77 | 1012.3 |
| 20260506110513 | 37 | 0 | 0.0 | 2.0 | 0.00 | 0.00 | 0.00 | 75 | 1012.3 |
| 20260506110032 | 37 | 289 | 0.0 | 2.0 | 0.00 | 0.00 | 0.00 | 74 | 1012.2 |
| 20260506105514 | 37 | 0 | 0.0 | 0.0 | 0.00 | 0.00 | 0.00 | 76 | 1012.2 |
| 20260506105014 | 37 | 0 | 0.0 | 0.0 | 0.00 | 0.00 | 0.00 | 76 | 1012.0 |
| 20260506104533 | 36 | 0 | 0.0 | 2.0 | 0.00 | 0.00 | 0.00 | 76 | 1012.0 |
| 20260506104014 | 36 | 0 | 0.0 | 2.0 | 0.00 | 0.00 | 0.00 | 77 | 1012.0 |
| 20260506103516 | 36 | 278 | 0.0 | 1.0 | 0.00 | 0.00 | 0.00 | 77 | 1012.2 |
| 20260506103035 | 36 | 278 | 0.0 | 2.0 | 0.00 | 0.00 | 0.00 | 78 | 1012.2 |
| 20260506102516 | 36 | 278 | 0.0 | 2.0 | 0.00 | 0.00 | 0.00 | 79 | 1012.0 |
| 20260506102015 | 36 | 0 | 0.0 | 0.0 | 0.00 | 0.00 | 0.00 | 77 | 1012.0 |
| 20260506101530 | 36 | 0 | 0.0 | 2.0 | 0.00 | 0.00 | 0.00 | 78 | 1011.9 |
| 20260506101013 | 36 | 0 | 0.0 | 2.0 | 0.00 | 0.00 | 0.00 | 77 | 1011.8 |
| 20260506100513 | 36 | 0 | 0.0 | 2.0 | 0.00 | 0.00 | 0.00 | 76 | 1011.8 |
| 20260506100031 | 36 | 278 | 0.0 | 2.0 | 0.00 | 0.00 | 0.00 | 74 | 1011.9 |
| 20260506095514 | 36 | 0 | 0.0 | 2.0 | 0.00 | 0.00 | 0.00 | 76 | 1011.8 |
| 20260506095016 | 36 | 0 | 0.0 | 2.0 | 0.00 | 0.00 | 0.00 | 76 | 1011.8 |
| 20260506094532 | 36 | 278 | 1.0 | 2.0 | 0.00 | 0.00 | 0.00 | 74 | 1012.0 |
| 20260506094016 | 36 | 273 | 1.0 | 3.0 | 0.00 | 0.00 | 0.00 | 74 | 1012.0 |
| 20260506093518 | 36 | 282 | 1.0 | 3.0 | 0.00 | 0.00 | 0.00 | 74 | 1012.0 |
| 20260506093031 | 35 | 279 | 1.0 | 2.0 | 0.00 | 0.00 | 0.00 | 76 | 1012.0 |
| 20260506092514 | 35 | 280 | 0.0 | 2.0 | 0.00 | 0.00 | 0.00 | 77 | 1012.0 |
| 20260506092014 | 35 | 0 | 0.0 | 2.0 | 0.00 | 0.00 | 0.00 | 77 | 1011.9 |
| 20260506091532 | 35 | 280 | 0.0 | 2.0 | 0.00 | 0.00 | 0.00 | 77 | 1011.8 |
| 20260506091016 | 35 | 0 | 0.0 | 2.0 | 0.00 | 0.00 | 0.00 | 77 | 1011.9 |
| 20260506090513 | 35 | 0 | 0.0 | 2.0 | 0.00 | 0.00 | 0.00 | 77 | 1011.8 |
| 20260506090043 | 35 | 280 | 1.0 | 2.0 | 0.00 | 0.00 | 0.00 | 76 | 1011.8 |
| 20260506085517 | 35 | 280 | 1.0 | 3.0 | 0.00 | 0.00 | 0.00 | 76 | 1011.7 |
| 20260506085014 | 35 | 282 | 1.0 | 3.0 | 0.00 | 0.00 | 0.00 | 76 | 1011.6 |
| 20260506084530 | 35 | 282 | 2.0 | 3.0 | 0.00 | 0.00 | 0.00 | 77 | 1011.6 |
| 20260506084015 | 35 | 277 | 2.0 | 3.0 | 0.00 | 0.00 | 0.00 | 78 | 1011.7 |
| 20260506083516 | 35 | 276 | 2.0 | 3.0 | 0.00 | 0.00 | 0.00 | 78 | 1011.5 |
| 20260506083030 | 35 | 279 | 2.0 | 3.0 | 0.00 | 0.00 | 0.00 | 79 | 1011.5 |
| 20260506082534 | 35 | 283 | 2.0 | 3.0 | 0.00 | 0.00 | 0.00 | 78 | 1011.4 |
| 20260506082015 | 35 | 278 | 1.0 | 2.0 | 0.00 | 0.00 | 0.00 | 77 | 1011.5 |
| 20260506081536 | 35 | 276 | 1.0 | 2.0 | 0.00 | 0.00 | 0.00 | 75 | 1011.5 |
| 20260506081015 | 36 | 276 | 0.0 | 2.0 | 0.00 | 0.00 | 0.00 | 74 | 1011.4 |
| 20260506080512 | 36 | 276 | 1.0 | 1.0 | 0.00 | 0.00 | 0.00 | 73 | 1011.3 |
| 20260506073516 | 37 | 276 | 0.0 | 1.0 | 0.00 | 0.00 | 0.00 | 73 | 1011.2 |
| 20260506073032 | 36 | 276 | 1.0 | 2.0 | 0.00 | 0.00 | 0.00 | 74 | 1011.3 |
| 20260506072516 | 36 | 276 | 1.0 | 2.0 | 0.00 | 0.00 | 0.00 | 73 | 1011.3 |
| 20260506072015 | 37 | 276 | 1.0 | 2.0 | 0.00 | 0.00 | 0.00 | 72 | 1011.3 |
| 20260506071532 | 37 | 274 | 1.0 | 2.0 | 0.00 | 0.00 | 0.00 | 72 | 1011.2 |
| 20260506071015 | 37 | 273 | 1.0 | 2.0 | 0.00 | 0.00 | 0.00 | 71 | 1011.3 |
| 20260506070515 | 37 | 288 | 1.0 | 2.0 | 0.00 | 0.00 | 0.00 | 70 | 1011.4 |
| 20260506062516 | 38 | 298 | 1.0 | 1.0 | 0.00 | 0.00 | 0.00 | 65 | 1011.4 |
| 20260506062013 | 38 | 298 | 1.0 | 1.0 | 0.00 | 0.00 | 0.00 | 62 | 1011.4 |
| 20260506061546 | 38 | 298 | 0.0 | 1.0 | 0.00 | 0.00 | 0.00 | 63 | 1011.3 |
| 20260506061016 | 38 | 298 | 0.0 | 1.0 | 0.00 | 0.00 | 0.00 | 62 | 1011.3 |
| 20260506060519 | 39 | 298 | 1.0 | 1.0 | 0.00 | 0.00 | 0.00 | 62 | 1011.3 |
| 20260506051015 | 41 | 310 | 0.0 | 2.0 | 0.00 | 0.00 | 0.00 | 55 | 1011.7 |
| 20260506050524 | 41 | 310 | 0.0 | 2.0 | 0.00 | 0.00 | 0.00 | 52 | 1011.7 |
| 20260506045015 | 43 | 0 | 0.0 | 3.0 | 0.00 | 0.00 | 0.00 | 50 | 1011.6 |
| 20260506044544 | 43 | 0 | 0.0 | 3.0 | 0.00 | 0.00 | 0.00 | 50 | 1011.6 |
| 20260506044015 | 43 | 310 | 1.0 | 3.0 | 0.00 | 0.00 | 0.00 | 49 | 1011.6 |
| 20260506043516 | 43 | 337 | 1.0 | 3.0 | 0.00 | 0.00 | 0.00 | 49 | 1011.5 |
| 20260506043040 | 43 | 299 | 1.0 | 2.0 | 0.00 | 0.00 | 0.00 | 49 | 1011.4 |
| 20260506042516 | 43 | 322 | 1.0 | 2.0 | 0.00 | 0.00 | 0.00 | 49 | 1011.4 |
| 20260506042018 | 43 | 322 | 1.0 | 2.0 | 0.00 | 0.00 | 0.00 | 49 | 1011.2 |
| 20260506041536 | 43 | 321 | 0.0 | 2.0 | 0.00 | 0.00 | 0.00 | 49 | 1011.2 |
| 20260506041015 | 43 | 322 | 1.0 | 2.0 | 0.00 | 0.00 | 0.00 | 49 | 1011.3 |
| 20260506040515 | 43 | 321 | 0.0 | 2.0 | 0.00 | 0.00 | 0.00 | 48 | 1011.2 |
| 20260506040034 | 43 | 312 | 1.0 | 2.0 | 0.00 | 0.00 | 0.00 | 48 | 1011.2 |
| 20260506035518 | 43 | 333 | 0.0 | 2.0 | 0.00 | 0.00 | 0.00 | 48 | 1011.2 |
| 20260506035017 | 44 | 333 | 1.0 | 2.0 | 0.00 | 0.00 | 0.00 | 48 | 1011.2 |
| 20260506034535 | 44 | 336 | 0.0 | 2.0 | 0.00 | 0.00 | 0.00 | 47 | 1011.2 |
| 20260506034016 | 44 | 336 | 1.0 | 2.0 | 0.00 | 0.00 | 0.00 | 47 | 1011.2 |
| 20260506033515 | 44 | 333 | 0.0 | 3.0 | 0.00 | 0.00 | 0.00 | 47 | 1011.3 |
| 20260506033030 | 44 | 348 | 1.0 | 3.0 | 0.00 | 0.00 | 0.00 | 48 | 1011.3 |
| 20260506032516 | 44 | 0 | 1.0 | 3.0 | 0.00 | 0.00 | 0.00 | 48 | 1011.4 |
| 20260506032016 | 44 | 352 | 0.0 | 3.0 | 0.00 | 0.00 | 0.00 | 47 | 1011.3 |
| 20260506031545 | 44 | 350 | 1.0 | 3.0 | 0.00 | 0.00 | 0.00 | 46 | 1011.2 |
| 20260506031016 | 45 | 315 | 0.0 | 4.0 | 0.00 | 0.00 | 0.00 | 46 | 1011.1 |
| 20260506030516 | 45 | 338 | 1.0 | 4.0 | 0.00 | 0.00 | 0.00 | 46 | 1011.3 |
| 20260506030035 | 45 | 311 | 0.0 | 3.0 | 0.00 | 0.00 | 0.00 | 47 | 1011.2 |
| 20260506025519 | 45 | 327 | 1.0 | 2.0 | 0.00 | 0.00 | 0.00 | 46 | 1011.2 |
| 20260506025015 | 45 | 329 | 1.0 | 4.0 | 0.00 | 0.00 | 0.00 | 46 | 1011.2 |
| 20260506024544 | 45 | 331 | 2.0 | 4.0 | 0.00 | 0.00 | 0.00 | 46 | 1011.2 |
| 20260506024015 | 45 | 340 | 1.0 | 5.0 | 0.00 | 0.00 | 0.00 | 46 | 1011.1 |
| 20260506023520 | 45 | 315 | 1.0 | 5.0 | 0.00 | 0.00 | 0.00 | 46 | 1011.0 |
| 20260506023033 | 45 | 341 | 2.0 | 5.0 | 0.00 | 0.00 | 0.00 | 46 | 1011.0 |
| 20260506022518 | 46 | 339 | 2.0 | 5.0 | 0.00 | 0.00 | 0.00 | 45 | 1011.0 |
| 20260506022015 | 46 | 333 | 1.0 | 8.0 | 0.00 | 0.00 | 0.00 | 45 | 1010.9 |
| 20260506021533 | 46 | 9 | 3.0 | 8.0 | 0.00 | 0.00 | 0.00 | 44 | 1010.9 |
| 20260506021019 | 46 | 352 | 3.0 | 8.0 | 0.00 | 0.00 | 0.00 | 44 | 1010.8 |
| 20260506020515 | 46 | 351 | 2.0 | 9.0 | 0.00 | 0.00 | 0.00 | 44 | 1010.7 |
| 20260506020035 | 47 | 35 | 4.0 | 9.0 | 0.00 | 0.00 | 0.00 | 43 | 1010.7 |
| 20260506015516 | 47 | 318 | 2.0 | 5.0 | 0.00 | 0.00 | 0.00 | 43 | 1010.4 |
| 20260506015019 | 47 | 346 | 3.0 | 8.0 | 0.00 | 0.00 | 0.00 | 41 | 1010.3 |
| 20260506014536 | 47 | 344 | 3.0 | 8.0 | 0.00 | 0.00 | 0.00 | 42 | 1010.2 |
| 20260506014019 | 48 | 352 | 3.0 | 7.0 | 0.00 | 0.00 | 0.00 | 41 | 1010.0 |
| 20260506013515 | 48 | 343 | 2.0 | 8.0 | 0.00 | 0.00 | 0.00 | 41 | 1009.9 |
| 20260506013036 | 48 | 328 | 4.0 | 12.0 | 0.00 | 0.00 | 0.00 | 41 | 1009.8 |
| 20260506012516 | 48 | 342 | 6.0 | 12.0 | 0.00 | 0.00 | 0.00 | 40 | 1009.8 |
| 20260506012018 | 48 | 28 | 3.0 | 12.0 | 0.00 | 0.00 | 0.00 | 40 | 1009.9 |
| 20260506011538 | 49 | 340 | 5.0 | 12.0 | 0.00 | 0.00 | 0.00 | 40 | 1009.9 |
| 20260506011015 | 49 | 360 | 5.0 | 11.0 | 0.00 | 0.00 | 0.00 | 40 | 1009.8 |
| 20260506010515 | 49 | 321 | 4.0 | 11.0 | 0.00 | 0.00 | 0.00 | 40 | 1009.6 |
| 20260506010033 | 50 | 342 | 5.0 | 15.0 | 0.00 | 0.00 | 0.00 | 39 | 1009.6 |
| 20260506005517 | 50 | 350 | 5.0 | 15.0 | 0.00 | 0.00 | 0.00 | 38 | 1009.5 |
| 20260506005016 | 50 | 360 | 7.0 | 15.0 | 0.00 | 0.00 | 0.00 | 37 | 1009.4 |
| 20260506004535 | 51 | 324 | 6.0 | 15.0 | 0.00 | 0.00 | 0.00 | 36 | 1009.3 |
| 20260506004016 | 51 | 325 | 8.0 | 15.0 | 0.00 | 0.00 | 0.00 | 34 | 1009.2 |
| 20260506003518 | 51 | 350 | 6.0 | 14.0 | 0.00 | 0.00 | 0.00 | 34 | 1009.1 |
| 20260506003035 | 52 | 318 | 7.0 | 12.0 | 0.00 | 0.00 | 0.00 | 33 | 1009.1 |
| 20260506002515 | 52 | 315 | 6.0 | 12.0 | 0.00 | 0.00 | 0.00 | 33 | 1009.0 |
| 20260506002015 | 52 | 326 | 8.0 | 16.0 | 0.00 | 0.00 | 0.00 | 32 | 1009.1 |
| 20260506001539 | 52 | 296 | 8.0 | 16.0 | 0.00 | 0.00 | 0.00 | 32 | 1009.0 |
| 20260506001016 | 52 | 295 | 8.0 | 15.0 | 0.00 | 0.00 | 0.00 | 32 | 1009.0 |
| 20260506000516 | 52 | 327 | 7.0 | 15.0 | 0.00 | 0.00 | 0.00 | 32 | 1009.1 |
| 20260506000039 | 52 | 266 | 10.0 | 17.0 | 0.00 | 0.00 | 0.00 | 32 | 1009.1 |
| 20260505235515 | 52 | 314 | 6.0 | 17.0 | 0.00 | 0.00 | 0.00 | 33 | 1009.1 |
| 20260505235016 | 52 | 316 | 8.0 | 15.0 | 0.00 | 0.00 | 0.00 | 33 | 1009.0 |
| 20260505234535 | 52 | 310 | 9.0 | 15.0 | 0.00 | 0.00 | 0.00 | 32 | 1009.0 |
| 20260505234018 | 52 | 295 | 7.0 | 20.0 | 0.00 | 0.00 | 0.00 | 32 | 1009.0 |
| 20260505233515 | 53 | 339 | 10.0 | 20.0 | 0.00 | 0.00 | 0.00 | 31 | 1009.0 |
| 20260505233030 | 53 | 324 | 9.0 | 19.0 | 0.00 | 0.00 | 0.00 | 31 | 1009.0 |
| 20260505232518 | 53 | 327 | 9.0 | 15.0 | 0.00 | 0.00 | 0.00 | 32 | 1008.9 |